Location: Milano
(45.4670°N, 9.2000°E)
Time: 09:15:08
(UTC+02:00)

X-37B - Visible Passes

Search period start: 30 July 2021 00:00
Search period end: 09 August 2021 00:00
Orbit: 383 x 392 km, 45.0° (Epoch: 01 July)

Date Brightness Start Highest point End Pass type
(mag) Time Alt. Az. Time Alt. Az. Time Alt. Az.
31 Jul 3.1 04:55:19 10° S 04:56:43 12° SE 04:58:07 10° ESE visible
01 Aug 1.8 05:31:42 10° SW 05:34:34 31° SSE 05:37:27 10° E visible
02 Aug 2.4 04:35:26 18° S 04:36:22 20° SSE 04:38:48 10° E visible
03 Aug 3.4 03:39:35 10° ESE 03:39:35 10° ESE 03:39:39 10° ESE visible
03 Aug 1.1 05:11:51 14° SW 05:14:21 46° SSE 05:17:26 10° E visible
04 Aug 1.6 04:15:59 31° SSE 04:16:05 31° SSE 04:18:58 10° E visible
05 Aug 3.5 03:20:05 11° ESE 03:20:05 11° ESE 03:20:20 10° E visible
05 Aug 0.6 04:52:22 23° WSW 04:54:11 64° SSE 04:57:21 10° E visible
06 Aug 1.4 03:56:29 40° SE 03:56:29 40° SE 03:58:57 10° E visible
06 Aug 0.6 05:29:13 10° W 05:32:25 85° S 05:35:37 10° E visible
07 Aug 0.5 04:32:54 36° WSW 04:34:03 79° S 04:37:15 10° E visible
08 Aug 2.2 03:37:06 29° E 03:37:06 29° E 03:38:52 10° E visible
08 Aug 0.5 05:09:23 12° W 05:12:19 82° S 05:15:30 10° E visible
